QPF
0.00 0.00 0.00 0.00 0.00 0.00 0.00 0.00 0.00 0.00 0.00 0.00 0.00 0.00 0.01 0.01 0.01 0.02 0.01 0.02 0.02 0.02 0.03 0.02 0.01 0.01 0.01 0.01 0.00 0.00 0.00 0.00 0.00 0.00 0.00 0.00 0.00 0.00 0.00 0.00 0.00 0.00 0.00
0.00 0.00 0.00 0.00 0.00 0.00 0.00 0.00 0.00 0.00 0.00 0.00 0.00 0.00 0.00 0.01 0.01 0.01 0.01 0.02 0.03 0.02 0.02 0.03 0.03 0.05 0.03 0.02 0.02 0.01 0.00 0.00 0.00 0.00 0.00 0.00 0.00 0.00 0.00 0.00 0.00 0.00 0.00
0.00 0.00 0.00 0.00 0.00 0.00 0.00 0.00 0.00 0.00 0.00 0.00 0.00 0.00 0.00 0.00 0.01 0.01 0.02 0.02 0.02 0.02 0.03 0.04 0.03 0.04 0.03 0.03 0.03 0.02 0.01 0.01 0.01 0.00 0.00 0.00 0.00 0.00 0.00 0.00 0.00 0.00 0.00
0.00 0.00 0.00 0.00 0.00 0.00 0.00 0.00 0.00 0.00 0.00 0.00 0.00 0.00 0.00 0.00 0.00 0.00 0.01 0.02 0.02 0.03 0.04 0.05 0.05 0.05 0.05 0.05 0.04 0.03 0.03 0.03 0.02 0.02 0.01 0.01 0.01 0.00 0.00 0.00 0.00 0.00 0.00
0.00 0.00 0.00 0.00 0.00 0.00 0.00 0.00 0.00 0.00 0.00 0.00 0.00 0.00 0.00 0.00 0.00 0.00 0.00 0.00 0.01 0.01 0.01 0.01 0.03 0.04 0.04 0.05 0.05 0.04 0.04 0.04 0.03 0.02 0.02 0.01 0.01 0.00 0.00 0.00 0.00 0.00 0.00
0.00 0.00 0.00 0.00 0.00 0.00 0.00 0.00 0.00 0.00 0.00 0.00 0.00 0.00 0.00 0.00 0.00 0.00 0.00 0.00 0.00 0.00 0.00 0.00 0.00 0.00 0.00 0.00 0.00 0.01 0.01 0.01 0.01 0.01 0.01 0.01 0.01 0.01 0.00 0.00 0.00 0.00 0.00
0.00 0.00 0.00 0.00 0.00 0.00 0.00 0.00 0.00 0.00 0.00 0.00 0.00 0.00 0.00 0.00 0.00 0.00 0.00 0.00 0.00 0.00 0.00 0.00 0.00 0.00 0.00 0.00 0.00 0.00 0.00 0.00 0.00 0.00 0.00 0.01 0.01 0.00 0.00 0.00 0.00 0.00 0.00
0.00 0.00 0.00 0.00 0.00 0.00 0.00 0.00 0.00 0.00 0.00 0.00 0.00 0.00 0.00 0.00 0.00 0.00 0.00 0.00 0.00 0.00 0.00 0.00 0.00 0.00 0.00 0.00 0.00 0.00 0.00 0.00 0.00 0.00 0.00 0.00 0.00 0.00 0.00 0.00 0.00 0.00 0.00
0.00 0.00 0.00 0.00 0.00 0.00 0.00 0.00 0.00 0.00 0.00 0.00 0.00 0.00 0.00 0.00 0.00 0.00 0.00 0.00 0.00 0.00 0.00 0.00 0.00 0.00 0.00 0.00 0.00 0.00 0.00 0.00 0.00 0.00 0.00 0.00 0.00 0.00 0.00 0.00 0.00 0.00 0.00
0.00 0.00 0.00 0.00 0.00 0.00 0.00 0.00 0.00 0.00 0.00 0.00 0.00 0.00 0.00 0.00 0.00 0.00 0.00 0.00 0.00 0.00 0.00 0.00 0.00 0.00 0.00 0.00 0.00 0.00 0.00 0.00 0.00 0.00 0.00 0.00 0.00 0.00 0.00 0.00 0.00 0.00 0.00
0.00 0.00 0.00 0.00 0.00 0.00 0.00 0.00 0.00 0.00 0.00 0.00 0.00 0.00 0.00 0.00 0.00 0.00 0.00 0.00 0.00 0.00 0.00 0.00 0.00 0.00 0.00 0.00 0.00 0.00 0.00 0.00 0.00 0.00 0.00 0.00 0.00 0.00 0.00 0.00 0.00 0.00 0.00
0.00 0.00 0.00 0.00 0.00 0.00 0.00 0.00 0.00 0.00 0.00 0.00 0.00 0.00 0.00 0.00 0.00 0.00 0.00 0.00 0.00 0.00 0.00 0.00 0.00 0.00 0.00 0.00 0.00 0.00 0.00 0.00 0.00 0.00 0.00 0.00 0.00 0.00 0.00 0.00 0.00 0.00 0.00
0.00 0.00 0.00 0.00 0.00 0.00 0.00 0.00 0.00 0.00 0.00 0.00 0.00 0.00 0.00 0.00 0.00 0.00 0.00 0.00 0.00 0.00 0.00 0.00 0.00 0.00 0.00 0.00 0.00 0.00 0.00 0.00 0.00 0.00 0.00 0.00 0.00 0.00 0.00 0.00 0.00 0.00 0.00
0.00 0.00 0.00 0.00 0.00 0.00 0.00 0.00 0.00 0.00 0.00 0.00 0.00 0.00 0.00 0.00 0.00 0.00 0.00 0.00 0.00 0.00 0.00 0.00 0.00 0.00 0.00 0.00 0.00 0.00 0.00 0.00 0.00 0.00 0.00 0.00 0.00 0.00 0.00 0.00 0.00 0.00 0.00
0.00 0.00 0.00 0.00 0.00 0.00 0.00 0.00 0.00 0.00 0.00 0.00 0.00 0.00 0.00 0.00 0.00 0.00 0.00 0.00 0.00 0.00 0.00 0.00 0.00 0.00 0.00 0.00 0.00 0.00 0.00 0.00 0.00 0.00 0.00 0.00 0.00 0.00 0.00 0.00 0.00 0.00 0.00
0.00 0.00 0.00 0.00 0.00 0.00 0.00 0.00 0.00 0.00 0.00 0.00 0.00 0.00 0.00 0.00 0.00 0.00 0.00 0.00 0.00 0.00 0.00 0.00 0.00 0.00 0.00 0.00 0.00 0.00 0.00 0.00 0.00 0.00 0.00 0.00 0.00 0.00 0.00 0.00 0.00 0.00 0.00
0.00 0.00 0.00 0.00 0.00 0.00 0.00 0.00 0.00 0.00 0.00 0.00 0.00 0.00 0.00 0.00 0.00 0.00 0.00 0.00 0.00 0.00 0.00 0.00 0.00 0.00 0.00 0.00 0.00 0.00 0.00 0.00 0.00 0.00 0.00 0.00 0.00 0.00 0.00 0.00 0.00 0.00 0.00
0.00 0.00 0.00 0.00 0.00 0.00 0.00 0.00 0.00 0.00 0.00 0.00 0.00 0.00 0.00 0.00 0.00 0.00 0.00 0.00 0.00 0.00 0.00 0.00 0.00 0.00 0.00 0.00 0.00 0.00 0.00 0.00 0.00 0.00 0.00 0.00 0.00 0.00 0.00 0.00 0.00 0.00 0.00
0.00 0.00 0.00 0.00 0.00 0.00 0.00 0.00 0.00 0.00 0.00 0.00 0.00 0.00 0.00 0.00 0.00 0.00 0.00 0.00 0.00 0.00 0.00 0.00 0.00 0.00 0.00 0.00 0.00 0.00 0.00 0.00 0.00 0.00 0.00 0.00 0.00 0.00 0.00 0.00 0.00 0.00 0.00
0.00 0.00 0.00 0.00 0.00 0.00 0.00 0.00 0.00 0.00 0.00 0.00 0.00 0.00 0.00 0.00 0.00 0.00 0.00 0.00 0.00 0.00 0.00 0.00 0.00 0.00 0.00 0.00 0.00 0.00 0.00 0.00 0.00 0.00 0.00 0.00 0.00 0.00 0.00 0.00 0.00 0.00 0.00
0.00 0.00 0.00 0.00 0.00 0.00 0.00 0.00 0.00 0.00 0.00 0.00 0.00 0.00 0.00 0.00 0.00 0.00 0.00 0.00 0.00 0.00 0.00 0.00 0.00 0.00 0.00 0.00 0.00 0.00 0.00 0.00 0.00 0.00 0.00 0.00 0.00 0.00 0.00 0.00 0.00 0.00 0.00
0.00 0.00 0.00 0.00 0.00 0.00 0.00 0.00 0.00 0.00 0.00 0.00 0.00 0.00 0.00 0.00 0.00 0.00 0.00 0.00 0.00 0.00 0.00 0.00 0.00 0.00 0.00 0.00 0.00 0.00 0.00 0.00 0.00 0.00 0.00 0.00 0.00 0.00 0.00 0.00 0.00 0.00 0.00
0.00 0.00 0.00 0.00 0.00 0.00 0.00 0.00 0.00 0.00 0.00 0.00 0.00 0.00 0.00 0.00 0.00 0.00 0.00 0.00 0.00 0.00 0.00 0.00 0.00 0.00 0.00 0.00 0.00 0.00 0.00 0.00 0.00 0.00 0.00 0.00 0.00 0.00 0.00 0.00 0.00 0.00 0.00
0.00 0.00 0.00 0.00 0.00 0.00 0.00 0.00 0.00 0.00 0.00 0.00 0.00 0.00 0.00 0.00 0.00 0.00 0.00 0.00 0.00 0.00 0.00 0.00 0.00 0.00 0.00 0.00 0.00 0.00 0.00 0.00 0.00 0.00 0.00 0.00 0.00 0.00 0.00 0.00 0.00 0.00 0.00
0.00 0.00 0.00 0.00 0.00 0.00 0.00 0.00 0.00 0.00 0.00 0.00 0.00 0.00 0.00 0.00 0.00 0.00 0.00 0.00 0.00 0.00 0.00 0.00 0.00 0.00 0.00 0.00 0.00 0.00 0.00 0.00 0.00 0.00 0.00 0.00 0.00 0.00 0.00 0.00 0.00 0.00 0.00
0.00 0.00 0.00 0.00 0.00 0.00 0.00 0.00 0.00 0.00 0.00 0.00 0.00 0.00 0.00 0.00 0.00 0.00 0.00 0.00 0.00 0.00 0.00 0.00 0.00 0.00 0.00 0.00 0.00 0.00 0.00 0.00 0.00 0.00 0.00 0.00 0.00 0.00 0.00 0.00 0.00 0.00 0.00
MSLP
1020.29 1019.78 1019.34 1018.91 1018.46 1017.69 1016.94 1016.21 1015.49 1014.60 1013.55 1012.57 1011.79 1011.06 1010.23 1009.58 1009.23 1008.97 1008.71 1008.52 1008.39 1008.31 1008.29 1008.25 1008.02 1008.06 1008.20 1008.27 1008.44 1008.58 1008.80 1009.03 1008.42 1008.23 1008.35 1008.42 1008.86 1009.10 1009.52 1009.85 1010.15 1010.42 1010.63
1021.08 1020.42 1019.77 1019.30 1018.67 1018.32 1017.73 1016.93 1016.18 1015.24 1014.34 1013.46 1012.19 1011.20 1010.21 1009.41 1008.79 1008.39 1008.01 1007.72 1007.49 1007.28 1007.19 1007.20 1006.97 1007.20 1007.14 1007.17 1007.23 1007.26 1007.30 1007.51 1007.53 1007.10 1007.48 1007.96 1008.28 1008.66 1008.93 1009.55 1009.94 1010.22 1010.07
1021.57 1020.80 1020.28 1019.52 1018.68 1018.35 1017.87 1017.10 1016.43 1015.68 1014.82 1013.84 1012.99 1011.82 1010.79 1009.88 1008.84 1008.13 1007.63 1007.13 1006.68 1006.28 1006.16 1006.12 1005.96 1006.12 1005.92 1006.08 1006.07 1006.07 1006.16 1006.27 1006.32 1006.28 1006.32 1007.28 1008.22 1008.52 1009.02 1009.24 1009.70 1009.97 1010.10
1022.57 1021.93 1021.34 1020.27 1019.32 1018.71 1018.21 1017.36 1016.59 1015.82 1015.03 1014.15 1013.31 1012.41 1011.27 1010.20 1009.36 1008.58 1007.87 1007.04 1006.21 1005.66 1005.41 1005.26 1005.14 1005.07 1004.97 1005.03 1005.05 1005.00 1004.83 1005.25 1005.34 1005.49 1005.87 1006.94 1007.74 1008.51 1008.87 1009.28 1009.39 1009.77 1010.27
1023.24 1022.62 1022.15 1021.28 1020.17 1019.42 1018.86 1017.86 1016.91 1015.80 1014.94 1014.14 1013.02 1012.31 1011.77 1010.74 1009.86 1009.27 1008.62 1007.73 1006.94 1005.93 1005.06 1004.53 1004.27 1004.19 1004.10 1004.07 1004.15 1004.30 1004.51 1004.41 1004.66 1004.65 1005.46 1006.16 1007.18 1007.97 1008.02 1008.02 1008.72 1009.79 1009.71
1024.02 1023.08 1022.22 1021.47 1020.65 1019.87 1019.27 1018.29 1017.18 1015.98 1014.87 1013.94 1013.08 1012.12 1011.24 1010.61 1009.94 1009.50 1009.06 1007.99 1007.36 1006.39 1005.48 1004.90 1004.39 1004.07 1003.90 1003.96 1003.93 1003.91 1003.95 1003.74 1004.09 1004.12 1004.90 1005.68 1006.03 1006.59 1007.02 1007.30 1008.09 1009.37 1009.57
1024.72 1023.84 1023.09 1022.28 1021.25 1020.29 1019.53 1018.74 1017.20 1016.20 1014.91 1013.81 1012.89 1012.01 1010.78 1010.04 1009.55 1008.97 1008.33 1007.68 1007.14 1006.50 1005.84 1005.16 1004.55 1004.19 1004.05 1003.87 1003.66 1003.56 1003.43 1003.34 1003.22 1003.58 1003.95 1004.26 1004.83 1005.22 1005.70 1006.90 1007.35 1007.96 1008.15
1024.88 1024.08 1023.13 1022.31 1021.49 1020.48 1019.73 1018.63 1017.56 1016.37 1015.18 1013.71 1012.54 1011.74 1010.81 1010.02 1009.12 1008.52 1007.85 1007.21 1006.62 1006.27 1005.64 1005.08 1004.64 1004.17 1003.83 1003.70 1003.67 1003.46 1003.55 1003.56 1003.27 1002.99 1003.01 1003.33 1003.57 1004.08 1004.59 1005.12 1006.02 1007.21 1008.06
1025.24 1024.47 1023.80 1022.88 1021.74 1020.72 1019.63 1018.47 1017.41 1016.12 1014.93 1013.66 1012.44 1011.33 1010.42 1009.37 1008.91 1008.00 1007.27 1006.74 1006.20 1005.72 1005.35 1004.77 1004.33 1003.94 1003.46 1003.38 1003.35 1003.40 1003.59 1003.46 1003.32 1003.31 1002.99 1003.04 1003.24 1003.73 1004.22 1005.09 1006.01 1006.87 1008.15
1025.87 1025.34 1024.13 1022.91 1021.84 1020.83 1019.72 1018.46 1017.34 1016.27 1014.53 1013.35 1011.69 1010.93 1009.87 1008.75 1008.02 1007.36 1006.79 1006.20 1005.60 1005.13 1004.71 1004.28 1003.84 1003.51 1003.14 1002.86 1002.91 1003.06 1003.30 1003.54 1003.53 1003.54 1003.49 1003.29 1003.41 1003.98 1004.32 1004.51 1004.95 1005.75 1006.98
1026.47 1024.99 1023.78 1022.86 1021.88 1020.71 1019.62 1018.57 1017.16 1015.96 1014.43 1012.64 1011.25 1010.03 1008.98 1008.02 1007.15 1006.56 1006.01 1005.47 1004.89 1004.43 1004.11 1003.74 1003.18 1002.93 1002.79 1002.64 1002.47 1002.67 1002.68 1003.07 1003.28 1003.55 1003.61 1003.94 1004.08 1004.37 1004.53 1004.77 1004.97 1005.35 1006.09
1025.71 1024.67 1023.75 1022.68 1021.75 1020.52 1019.45 1018.08 1017.02 1015.46 1013.54 1012.15 1010.63 1009.24 1008.14 1007.07 1006.46 1006.03 1005.38 1004.63 1004.46 1003.99 1003.45 1003.24 1002.89 1002.62 1002.36 1002.35 1002.37 1002.47 1002.55 1002.96 1003.27 1003.60 1003.87 1004.26 1004.43 1004.75 1004.98 1005.12 1005.37 1005.71 1005.99
1025.94 1024.93 1023.75 1022.59 1021.49 1020.56 1019.48 1018.23 1016.80 1015.24 1013.80 1012.09 1011.04 1009.31 1007.59 1006.59 1005.89 1005.20 1004.68 1004.25 1003.95 1003.57 1003.06 1002.91 1002.76 1002.30 1001.92 1002.01 1002.18 1002.38 1002.57 1002.85 1003.21 1003.58 1003.87 1004.21 1004.52 1004.91 1005.24 1005.54 1005.89 1006.11 1006.54
1026.27 1025.27 1023.86 1022.79 1021.86 1020.77 1019.82 1018.29 1017.09 1015.40 1014.91 1013.59 1012.37 1010.60 1008.44 1006.69 1005.68 1004.92 1004.40 1003.97 1003.64 1003.24 1002.88 1002.58 1002.42 1002.20 1002.11 1002.18 1002.37 1002.58 1002.79 1002.83 1003.03 1003.42 1004.00 1004.51 1004.82 1005.14 1005.49 1005.65 1006.13 1006.52 1007.05
1027.10 1025.85 1024.57 1023.71 1022.52 1021.12 1020.36 1019.10 1018.10 1017.12 1016.26 1015.07 1014.05 1012.21 1010.18 1007.69 1006.00 1005.26 1004.62 1004.18 1003.89 1003.38 1003.20 1002.93 1002.96 1003.26 1003.24 1003.29 1003.50 1003.47 1003.46 1003.39 1003.52 1003.83 1004.17 1004.53 1005.08 1005.43 1005.78 1005.97 1006.34 1006.80 1007.30
1027.63 1026.51 1025.61 1024.46 1023.27 1021.95 1020.82 1019.41 1018.91 1018.04 1017.14 1016.19 1014.98 1013.50 1011.90 1010.22 1007.95 1006.84 1005.99 1005.30 1004.76 1004.07 1004.22 1004.30 1004.53 1004.83 1004.68 1004.64 1004.79 1004.92 1004.67 1004.43 1004.45 1004.72 1004.97 1005.33 1005.53 1005.99 1006.24 1006.38 1006.69 1007.05 1007.49
1028.20 1027.23 1026.24 1025.29 1024.20 1023.08 1021.89 1021.11 1020.08 1018.34 1018.03 1017.16 1015.82 1014.86 1013.34 1012.46 1010.52 1009.02 1008.30 1007.50 1007.23 1006.83 1007.19 1007.23 1006.96 1007.14 1006.95 1006.57 1006.32 1006.17 1006.06 1005.91 1005.45 1005.67 1006.06 1006.29 1006.82 1007.02 1006.94 1007.28 1007.54 1007.61 1007.86
1028.53 1027.51 1026.63 1025.75 1024.98 1024.21 1023.47 1022.39 1021.85 1020.59 1019.56 1018.39 1017.10 1016.11 1014.96 1013.86 1012.85 1011.45 1010.62 1009.21 1009.71 1010.16 1010.71 1010.39 1009.94 1009.66 1009.47 1009.02 1008.58 1008.26 1007.96 1007.62 1007.19 1007.19 1007.31 1007.50 1007.93 1007.96 1008.04 1008.00 1008.13 1008.14 1008.31
1028.96 1027.95 1027.18 1026.34 1025.57 1024.85 1024.42 1023.59 1023.02 1021.88 1021.24 1020.51 1019.08 1017.14 1016.54 1015.75 1015.02 1014.08 1013.52 1013.30 1013.43 1013.47 1013.49 1012.98 1012.64 1012.24 1011.70 1011.18 1010.99 1010.59 1010.04 1009.92 1009.71 1009.33 1009.13 1009.30 1009.43 1009.21 1009.17 1008.96 1008.80 1008.74 1009.11
1029.19 1028.54 1027.82 1027.05 1026.31 1025.69 1025.07 1024.49 1023.90 1022.82 1022.31 1021.83 1020.95 1019.47 1018.64 1017.38 1016.47 1016.49 1016.31 1016.16 1016.01 1015.78 1015.46 1015.35 1015.02 1014.47 1013.87 1013.24 1012.82 1012.46 1012.01 1011.80 1011.63 1011.46 1011.21 1011.12 1010.89 1010.66 1010.48 1010.31 1010.04 1009.99 1010.32
1029.71 1029.02 1028.30 1027.85 1027.32 1026.64 1026.03 1025.33 1024.77 1023.88 1023.27 1023.23 1022.64 1021.43 1020.22 1019.98 1019.42 1018.99 1018.51 1018.09 1017.91 1017.76 1017.33 1016.98 1016.59 1016.17 1015.71 1015.29 1014.69 1014.24 1014.00 1014.03 1013.75 1013.37 1012.99 1012.66 1012.27 1011.82 1011.58 1011.50 1011.60 1011.42 1011.23
1030.16 1029.61 1028.95 1028.67 1027.95 1027.47 1026.82 1026.29 1025.46 1024.97 1024.27 1023.92 1023.52 1022.74 1021.79 1021.43 1021.00 1020.56 1020.05 1019.69 1019.47 1019.17 1018.79 1018.32 1017.97 1017.57 1017.19 1016.77 1016.31 1015.90 1015.56 1015.17 1014.91 1014.59 1014.16 1013.81 1013.36 1013.03 1012.77 1012.47 1012.39 1012.31 1012.21
1030.77 1030.33 1029.71 1029.15 1028.61 1028.11 1027.62 1027.03 1026.49 1025.85 1025.30 1024.80 1024.40 1023.77 1023.17 1022.60 1022.13 1021.75 1021.29 1020.90 1020.59 1020.20 1019.65 1019.21 1018.93 1018.60 1018.25 1017.84 1017.43 1017.16 1016.70 1016.26 1015.83 1015.44 1015.04 1014.61 1014.22 1013.88 1013.70 1013.51 1013.36 1013.20 1013.25
1030.90 1030.78 1030.61 1030.14 1029.47 1029.02 1028.55 1028.08 1027.39 1026.83 1026.37 1025.79 1025.33 1024.83 1024.30 1023.72 1023.16 1022.72 1022.28 1021.81 1021.49 1021.09 1020.56 1020.07 1019.59 1019.36 1018.92 1018.48 1018.03 1017.63 1017.25 1016.75 1016.37 1015.86 1015.51 1015.08 1014.73 1014.48 1014.28 1014.20 1014.20 1014.19 1013.84
1031.45 1031.18 1031.02 1030.77 1030.47 1030.05 1029.54 1028.96 1028.38 1027.74 1027.22 1026.65 1026.12 1025.62 1025.07 1024.55 1024.00 1023.48 1023.03 1022.56 1022.14 1021.72 1021.10 1020.59 1020.11 1019.76 1019.32 1018.90 1018.49 1018.01 1017.42 1017.03 1016.50 1015.97 1015.56 1015.29 1015.13 1015.04 1014.94 1014.79 1014.64 1014.46 1014.22
1031.70 1031.49 1031.23 1030.94 1030.65 1030.31 1030.21 1029.66 1029.10 1028.49 1028.00 1027.31 1026.77 1026.24 1025.68 1025.09 1024.57 1024.09 1023.58 1023.05 1022.55 1022.00 1021.46 1020.91 1020.43 1020.03 1019.54 1019.01 1018.55 1017.98 1017.42 1016.86 1016.20 1015.62 1015.61 1015.54 1015.46 1015.33 1015.21 1015.11 1014.94 1014.75 1014.58
Thickness
5519 5522 5525 5529 5532 5538 5543 5549 5554 5562 5570 5577 5581 5585 5591 5596 5598 5599 5600 5601 5601 5601 5602 5601 5604 5603 5601 5600 5597 5596 5593 5590 5595 5600 5597 5595 5588 5585 5579 5574 5569 5565 5561
5503 5508 5513 5515 5520 5522 5525 5531 5537 5543 5549 5556 5566 5573 5579 5584 5587 5589 5593 5594 5595 5596 5597 5595 5598 5595 5594 5594 5593 5592 5592 5589 5588 5595 5591 5584 5580 5574 5571 5564 5559 5554 5550
5491 5495 5498 5504 5510 5512 5515 5519 5523 5528 5532 5539 5545 5554 5562 5568 5574 5578 5580 5583 5587 5590 5591 5590 5593 5589 5590 5589 5589 5587 5586 5585 5584 5586 5589 5570 5563 5561 5558 5553 5546 5542 5539
5473 5476 5480 5488 5494 5498 5500 5506 5510 5515 5520 5525 5529 5535 5543 5551 5556 5561 5564 5570 5576 5580 5581 5582 5583 5584 5584 5583 5581 5582 5582 5577 5577 5577 5579 5559 5553 5546 5544 5541 5531 5529 5523
5457 5461 5462 5468 5476 5480 5482 5489 5494 5502 5508 5513 5520 5524 5525 5532 5536 5539 5543 5548 5553 5561 5570 5573 5574 5574 5572 5572 5572 5572 5568 5569 5567 5569 5551 5541 5541 5537 5538 5535 5528 5518 5515
5439 5444 5450 5454 5459 5463 5465 5470 5477 5485 5493 5498 5503 5509 5515 5518 5520 5521 5523 5531 5535 5541 5549 5553 5556 5554 5556 5553 5553 5553 5553 5559 5556 5552 5543 5539 5537 5533 5527 5524 5516 5509 5509
5422 5427 5430 5434 5440 5445 5448 5451 5462 5467 5476 5482 5487 5492 5501 5504 5506 5509 5512 5517 5520 5524 5529 5535 5539 5540 5538 5540 5541 5540 5541 5542 5544 5542 5537 5538 5532 5528 5523 5513 5509 5505 5506
5408 5410 5415 5419 5422 5427 5429 5435 5441 5448 5455 5466 5473 5476 5481 5486 5489 5492 5497 5501 5506 5508 5512 5516 5520 5525 5525 5526 5526 5528 5528 5527 5528 5531 5532 5529 5526 5522 5518 5513 5507 5495 5489
5391 5393 5394 5398 5404 5408 5413 5418 5422 5429 5436 5443 5451 5459 5464 5471 5472 5476 5481 5485 5489 5493 5495 5500 5503 5507 5511 5511 5512 5512 5510 5512 5513 5513 5516 5516 5514 5510 5506 5498 5492 5486 5474
5370 5370 5375 5381 5386 5390 5394 5399 5402 5405 5417 5423 5435 5438 5445 5453 5458 5461 5463 5468 5474 5478 5482 5484 5488 5492 5495 5498 5498 5497 5498 5495 5495 5495 5496 5498 5497 5492 5490 5487 5485 5482 5468
5351 5359 5364 5366 5369 5372 5376 5376 5382 5385 5394 5405 5413 5423 5430 5436 5442 5445 5449 5453 5458 5462 5466 5470 5474 5477 5480 5482 5484 5482 5484 5480 5480 5478 5479 5477 5476 5473 5472 5470 5469 5467 5461
5341 5344 5345 5346 5347 5349 5351 5355 5356 5361 5374 5384 5393 5405 5412 5419 5422 5426 5430 5437 5439 5444 5450 5452 5455 5459 5463 5465 5466 5466 5466 5463 5462 5461 5460 5457 5456 5454 5452 5451 5449 5446 5444
5320 5321 5323 5325 5326 5326 5326 5326 5330 5334 5342 5354 5361 5376 5390 5396 5401 5406 5412 5416 5421 5425 5430 5432 5435 5440 5446 5446 5446 5447 5446 5445 5444 5442 5442 5438 5437 5434 5432 5431 5428 5426 5423
5296 5297 5301 5302 5301 5300 5297 5298 5299 5304 5303 5308 5314 5330 5348 5365 5375 5381 5388 5395 5399 5405 5409 5413 5416 5419 5422 5423 5423 5423 5423 5426 5427 5425 5420 5416 5415 5415 5413 5412 5409 5406 5403
5270 5273 5274 5271 5272 5275 5267 5265 5264 5259 5259 5266 5272 5287 5303 5328 5343 5351 5361 5368 5374 5380 5383 5388 5390 5389 5392 5393 5393 5395 5397 5399 5401 5399 5398 5397 5395 5394 5393 5392 5389 5386 5383
5247 5247 5244 5244 5243 5243 5244 5244 5228 5226 5230 5234 5241 5253 5266 5281 5302 5314 5324 5334 5342 5350 5352 5355 5356 5355 5359 5362 5365 5364 5367 5372 5374 5373 5374 5372 5370 5370 5369 5368 5368 5367 5365
5222 5221 5217 5215 5212 5211 5209 5206 5203 5203 5201 5206 5216 5222 5235 5243 5261 5275 5283 5292 5297 5304 5304 5307 5313 5314 5319 5325 5332 5336 5339 5342 5347 5348 5347 5346 5342 5342 5345 5343 5344 5345 5343
5199 5197 5194 5190 5185 5180 5176 5175 5171 5173 5174 5178 5189 5196 5206 5216 5225 5238 5247 5259 5256 5255 5253 5259 5266 5272 5276 5283 5290 5297 5302 5306 5312 5315 5316 5316 5314 5315 5317 5321 5321 5321 5321
5176 5174 5169 5166 5163 5160 5155 5153 5149 5151 5150 5150 5157 5173 5178 5186 5192 5201 5207 5209 5210 5211 5213 5219 5225 5232 5238 5246 5251 5257 5264 5267 5270 5274 5278 5278 5279 5285 5288 5293 5295 5297 5294
5156 5153 5150 5148 5146 5143 5140 5137 5134 5137 5135 5132 5134 5144 5149 5159 5166 5166 5169 5172 5174 5178 5182 5184 5189 5195 5202 5210 5217 5223 5228 5231 5234 5238 5242 5244 5248 5251 5256 5260 5263 5266 5265
5137 5134 5132 5129 5127 5126 5124 5122 5122 5123 5121 5115 5115 5121 5129 5128 5131 5134 5139 5142 5144 5146 5151 5155 5159 5164 5170 5176 5184 5189 5193 5194 5199 5203 5209 5213 5218 5223 5227 5229 5229 5233 5235
5120 5115 5113 5110 5110 5109 5109 5107 5108 5107 5108 5104 5102 5105 5110 5110 5111 5113 5116 5118 5119 5122 5125 5129 5132 5137 5141 5147 5152 5157 5161 5166 5170 5175 5179 5183 5189 5194 5196 5200 5202 5204 5206
5105 5100 5098 5096 5095 5094 5093 5093 5093 5093 5093 5092 5090 5091 5093 5094 5096 5097 5099 5100 5101 5102 5106 5109 5111 5114 5118 5122 5125 5129 5134 5138 5142 5147 5152 5157 5161 5165 5167 5170 5172 5174 5174
5094 5088 5083 5080 5080 5079 5078 5077 5078 5078 5077 5078 5077 5077 5078 5079 5081 5082 5083 5085 5086 5087 5089 5092 5094 5095 5098 5102 5105 5108 5112 5116 5120 5125 5128 5132 5136 5138 5141 5142 5143 5143 5147
5080 5075 5070 5068 5064 5064 5064 5064 5064 5064 5064 5064 5064 5064 5065 5066 5067 5068 5068 5069 5070 5072 5074 5077 5079 5080 5082 5084 5086 5089 5093 5095 5099 5103 5107 5109 5111 5112 5114 5115 5117 5119 5122
5068 5063 5059 5056 5056 5054 5051 5051 5051 5051 5051 5052 5052 5052 5052 5053 5053 5053 5054 5055 5056 5057 5059 5060 5062 5064 5066 5068 5069 5071 5074 5077 5081 5084 5085 5086 5086 5086 5088 5089 5091 5093 5095